Regional Weather Roundup
Issued by NWS

Home | Current Version | Previous Version | Text Only | Print | Product List | Glossary Off
Versions: 1 2 3 4 5 6 7 8 9 10 11 12 13 14 15 16 17 18 19 20 21 22 23 24 25 26 27 28 29 30 31 32 33 34 35 36 37 38 39 40 41 42 43 44 45 46 47 48 49 50

000
ASUS43 KBIS 292002
RWRND

NORTH DAKOTA REGIONAL WEATHER ROUNDUP
NATIONAL WEATHER SERVICE BISMARCK ND
300 PM CDT SUN MAY 29 2016

NOTE: "FAIR" INDICATES FEW OR NO CLOUDS BELOW 12,000 FEET WITH NO
SIGNIFICANT WEATHER AND/OR OBSTRUCTIONS TO VISIBILITY.


NDZ001>003-009>011-017-292100-
NORTHWEST NORTH DAKOTA

CITY           SKY/WX    TMP DP  RH WIND       PRES   REMARKS
WILLISTON      SUNNY     76  35  22 W10G18    29.96F
MINOT          MOSUNNY   77  38  24 W14       29.96S
MINOT AFB      SUNNY     73  40  30 W9G18     29.94F
$$

NDZ018>021-031>035-040>046-292100-
SOUTHWEST NORTH DAKOTA

CITY           SKY/WX    TMP DP  RH WIND       PRES   REMARKS
BISMARCK       MOSUNNY   76  43  30 VRB6G17   30.00F
DICKINSON      MOSUNNY   72  38  29 W8        29.97F
GARRISON         N/A     73  40  30 W8G20     29.98F
HETTINGER ARPT MOSUNNY   77  41  27 W9        30.01F
$$

NDZ004>008-012>016-024-026-027-054-292100-
NORTHEAST NORTH DAKOTA

CITY           SKY/WX    TMP DP  RH WIND       PRES   REMARKS
GRAND FORKS    MOSUNNY   74  52  46 NW10G20   29.92S
GRND FRKS AFB  SUNNY     75  48  38 NW18G25   29.93S
DEVILS LAKE    MOSUNNY   73  41  31 NW18G26   29.95F
$$

NDZ022-023-025-028>030-036>039-047>053-292100-
SOUTHEAST NORTH DAKOTA

CITY           SKY/WX    TMP DP  RH WIND       PRES   REMARKS
FARGO          SUNNY     77  46  33 W17G25    29.94F
JAMESTOWN      MOSUNNY   73  44  35 W13G25    29.97S
$$




USA.gov is the U.S. government's official web portal to all federal, state and local government web resources and services.